Theta_e
286 285 285 285 285 284 284 284 284 284 284 284 284 284 284 285 285 287 291 291 291 292 293 294 294 295 295 295 295 295 295 295 294 295 292 292 292 291 291 291 292 291 289
286 285 285 285 284 284 284 284 284 284 284 283 283 284 284 284 284 284 284 286 290 291 290 291 292 293 293 293 293 293 294 294 294 293 293 291 290 291 291 291 291 290 289
286 286 285 284 284 283 283 282 282 283 283 283 283 283 283 283 283 283 283 284 284 286 289 290 290 290 290 291 291 291 291 292 293 292 292 291 290 290 289 289 290 289 288
287 286 286 285 284 283 282 282 282 281 281 281 281 281 281 281 282 282 283 283 284 285 285 286 289 290 289 289 290 290 290 291 291 291 289 289 289 289 288 286 284 287 287
288 287 286 285 284 282 281 281 281 281 280 280 280 280 280 280 280 281 282 283 284 284 284 285 285 285 288 289 288 289 289 289 290 290 289 287 288 287 286 285 285 284 284
286 286 285 284 281 281 280 280 280 280 280 279 279 279 278 278 279 280 281 282 283 283 284 285 285 285 285 285 288 289 289 289 289 290 290 289 288 288 286 285 285 283 282
284 283 281 280 280 280 279 279 278 278 277 277 277 277 278 278 278 279 279 280 280 281 282 283 284 285 285 285 285 287 289 289 290 289 290 290 289 287 286 286 284 285 286
280 278 278 278 278 277 276 275 274 274 274 274 275 275 276 276 277 277 278 278 278 279 280 280 282 283 284 285 285 286 286 287 289 289 290 289 289 289 287 287 286 285 286
276 276 276 275 273 272 271 270 270 270 270 270 270 271 272 272 273 274 275 276 276 276 276 277 278 280 282 283 285 286 286 286 286 288 289 289 289 289 288 285 286 284 284
274 273 271 270 269 269 268 267 267 267 267 267 267 267 267 268 268 269 271 272 273 274 274 275 276 277 279 281 283 285 286 286 286 286 287 288 289 289 289 286 285 284 285
271 269 268 267 266 266 265 265 265 265 265 265 265 265 265 266 266 268 270 271 272 273 273 274 275 277 278 280 282 284 285 286 286 286 286 286 287 288 289 287 285 285 286
268 267 266 266 265 264 264 264 263 263 264 264 264 264 265 265 266 267 268 270 270 271 271 272 273 274 277 279 281 283 285 286 286 286 286 286 286 287 287 288 285 284 285
266 266 265 265 264 264 263 263 263 263 264 264 264 264 265 265 265 266 268 268 269 269 270 270 271 272 274 278 281 283 284 285 287 287 286 286 286 286 287 286 286 285 284
265 265 264 264 263 263 263 262 262 262 263 263 264 265 265 266 268 268 267 267 268 269 269 269 270 271 273 275 277 281 284 285 286 287 287 286 285 285 285 284 283 282 282
264 264 263 263 263 262 262 262 263 264 264 266 268 268 269 270 270 271 272 273 273 272 271 269 269 272 274 275 275 281 283 284 284 286 287 286 285 284 283 283 282 280 281
263 263 263 262 262 262 262 262 263 265 266 268 269 269 270 270 271 272 273 273 274 275 274 273 273 272 273 274 275 278 280 281 283 285 286 286 284 283 283 282 282 280 281
263 262 262 261 261 261 262 262 263 264 265 266 267 268 269 271 272 273 273 274 274 275 274 273 272 272 273 274 275 276 281 282 283 285 285 285 283 282 282 281 280 279 279
262 262 261 261 261 261 262 262 263 263 264 265 266 267 269 269 271 272 273 274 273 273 273 272 271 272 273 273 275 277 279 282 282 284 284 283 282 282 281 280 279 278 278
262 262 261 261 261 261 261 262 263 264 265 265 265 266 266 267 269 269 269 269 270 271 272 273 272 272 273 274 275 276 278 281 282 282 282 282 281 280 279 279 278 278 277
263 262 261 261 261 260 261 262 263 263 264 264 264 264 265 268 265 265 265 266 267 267 268 268 270 275 275 277 276 278 279 281 281 281 281 280 279 279 278 277 276 276 276
262 261 261 260 260 260 260 261 262 263 263 263 263 263 267 265 264 264 264 264 265 265 266 267 270 275 277 279 278 280 280 280 280 279 279 278 277 276 277 276 275 275 274
261 261 261 260 260 260 260 260 261 262 262 263 263 263 265 263 263 263 263 263 263 264 264 265 267 270 272 274 277 278 278 278 277 276 275 275 275 274 274 273 273 272 272
261 261 260 261 260 260 260 260 261 261 262 262 262 263 263 263 263 262 262 262 262 262 264 265 265 268 270 272 273 274 274 273 274 274 273 273 272 272 272 271 271 271 271
261 260 260 260 260 260 260 260 260 260 260 261 261 261 262 262 262 262 262 262 262 262 263 264 265 266 267 269 270 271 272 272 272 272 272 271 271 270 270 270 270 270 269
260 260 260 260 259 259 259 260 260 260 260 260 260 260 260 261 261 261 262 262 263 263 263 264 264 265 266 267 268 268 269 270 270 270 270 270 269 269 269 268 268 268 268
260 260 260 260 259 259 259 259 259 259 259 259 259 260 260 260 260 261 261 261 262 263 264 264 265 266 266 267 267 267 267 268 268 269 269 268 268 268 268 267 268 267 267
Wind_Speed
12 14 16 16 18 18 21 24 25 24 24 25 25 25 25 24 24 22 20 20 23 28 29 32 34 34 37 40 41 40 41 40 20 25 30 36 33 42 45 45 42 40 39
8 9 14 16 21 22 25 25 27 26 26 27 26 26 27 27 26 24 24 24 24 23 29 31 33 34 35 37 38 37 39 37 35 25 28 33 38 40 44 47 46 44 42
12 15 18 22 26 25 26 27 26 27 28 29 29 30 30 29 30 30 29 26 26 28 28 28 33 33 35 33 35 36 31 33 38 32 27 28 37 36 40 41 45 45 43
16 19 22 26 32 33 31 32 33 32 33 33 34 35 34 34 35 36 35 32 31 30 30 30 31 31 34 31 31 35 32 31 30 33 28 26 29 29 37 32 29 42 46
17 20 22 27 33 34 35 38 39 38 37 39 38 35 33 33 32 32 34 36 36 37 38 36 34 33 32 34 29 27 27 29 30 28 27 24 23 18 33 27 31 30 36
13 20 24 30 33 34 36 37 36 34 34 34 33 33 35 34 31 32 32 33 33 33 35 34 37 39 36 33 36 36 33 30 31 29 30 28 32 28 30 31 29 18 8
14 20 25 26 29 31 32 34 34 35 36 36 37 35 37 37 34 34 34 34 35 36 36 35 35 35 35 36 33 35 36 41 42 37 36 39 30 33 30 32 35 33 26
20 22 22 21 23 28 33 33 34 34 35 36 38 37 38 42 41 40 39 37 37 36 35 36 37 39 37 34 33 34 37 40 46 46 44 45 39 34 42 43 41 39 29
20 18 19 24 31 32 30 30 30 32 34 35 37 38 37 43 41 42 42 39 37 38 39 40 39 40 40 39 38 36 35 39 38 44 51 48 41 38 39 36 32 27 16
15 19 21 24 25 28 29 31 31 30 33 34 35 34 36 40 37 37 36 37 38 38 40 40 42 45 45 43 41 38 35 42 34 33 39 46 52 44 39 46 40 31 28
22 23 23 24 26 28 30 29 32 32 32 33 34 32 33 33 34 31 31 33 33 36 37 37 38 39 42 43 43 41 43 40 34 35 34 34 37 42 43 42 45 43 36
23 25 28 29 28 26 29 31 29 30 31 32 32 31 29 29 29 31 31 32 34 37 39 39 40 42 44 44 44 44 43 43 37 31 31 32 32 34 40 43 42 43 41
24 27 29 28 27 26 26 28 27 27 27 28 27 28 30 31 32 34 35 35 35 36 37 40 46 47 46 48 47 47 45 37 33 31 30 32 33 34 32 32 37 41 38
25 27 24 24 27 24 26 26 26 27 26 26 28 30 32 31 29 29 31 35 39 40 40 41 39 36 40 42 41 41 39 34 30 29 30 32 30 28 28 28 26 28 26
24 23 22 21 23 24 23 27 27 29 29 32 32 33 33 32 32 38 40 38 35 33 36 35 31 29 28 28 31 26 25 30 31 32 30 26 26 26 27 29 29 24 23
23 20 22 23 22 22 25 27 30 29 31 34 36 37 38 39 41 40 40 41 40 39 34 29 28 27 25 25 26 25 23 27 31 32 28 27 24 27 26 26 29 27 26
23 25 24 23 22 22 25 26 26 37 32 31 32 33 35 38 40 39 37 37 38 37 26 25 25 25 23 24 25 26 22 22 28 27 25 25 27 27 28 26 26 25 22
23 24 22 23 22 24 25 26 26 25 27 37 38 34 35 35 36 36 36 35 29 30 26 26 24 25 22 24 26 25 26 23 23 25 24 26 28 28 25 25 27 27 25
21 21 21 23 22 24 26 25 24 25 26 29 32 34 33 36 34 32 27 23 23 23 26 24 26 26 26 26 28 29 28 23 22 22 20 23 24 25 25 27 27 28 26
20 20 20 22 21 22 23 22 23 24 25 26 27 28 34 30 27 29 26 25 24 25 27 26 28 27 27 25 26 27 27 23 21 23 21 22 25 27 26 25 25 24 24
18 22 21 19 20 21 21 21 21 22 23 24 26 28 31 27 25 25 26 26 26 28 29 29 26 15 19 22 22 22 20 19 19 18 18 20 22 21 21 22 23 23 22
16 17 19 19 20 20 20 20 20 20 22 24 27 28 28 25 25 25 26 26 27 26 27 27 24 25 22 16 7 9 12 14 17 18 17 18 19 20 22 21 21 21 22
11 15 17 17 18 19 20 20 19 20 21 23 24 25 26 26 26 26 27 27 28 28 30 29 30 27 22 18 12 4 5 8 12 17 20 20 20 21 22 22 22 21 22
9 12 13 15 17 19 19 20 20 20 21 21 22 23 24 25 26 26 28 28 29 30 30 30 29 27 24 21 16 11 5 4 9 13 18 21 20 21 21 20 20 20 21
7 9 11 13 15 16 18 19 20 20 20 20 21 22 24 24 25 27 29 30 29 30 30 30 29 28 27 23 18 14 9 5 7 11 14 18 20 21 20 19 20 20 21
7 8 10 11 13 14 15 17 18 19 20 21 22 23 24 24 25 26 28 30 30 30 29 28 27 27 27 25 23 19 13 9 8 9 14 18 21 22 22 21 22 21 21
Wind_Direction
36 30 15 6 7 359 354 351 350 348 348 350 349 348 348 349 347 338 325 313 305 298 282 275 270 264 263 262 261 256 252 245 248 255 243 234 226 223 224 227 229 227 227
20 15 16 359 354 348 344 342 339 337 337 338 338 334 334 334 331 329 325 320 310 299 295 291 280 276 268 264 262 259 253 246 240 246 241 229 224 225 227 224 224 226 227
350 346 347 350 350 344 337 334 335 331 330 331 330 326 325 323 319 315 313 310 305 301 296 288 287 283 276 269 263 259 254 249 247 241 241 230 225 221 216 222 223 224 228
330 327 329 335 337 333 330 329 329 328 324 322 321 317 315 314 310 308 307 305 301 296 295 292 287 279 275 270 263 259 255 249 242 239 237 222 218 220 214 205 207 220 224
307 311 316 320 323 323 324 325 324 322 319 318 315 311 307 305 301 300 299 298 295 293 293 291 287 283 280 273 261 259 253 247 243 240 240 229 211 196 200 201 209 209 217
294 301 308 310 316 317 317 317 315 313 312 310 304 301 299 298 294 291 290 290 287 285 282 281 282 285 281 275 266 256 246 247 243 241 243 232 227 217 200 199 195 190 213
305 306 308 310 309 310 311 311 311 309 307 303 301 299 295 291 289 292 292 291 288 283 279 277 277 272 271 274 272 260 253 245 244 244 242 242 238 220 200 200 201 202 213
316 316 315 312 309 307 308 308 305 304 302 300 297 296 294 290 292 294 293 291 286 281 279 277 273 271 269 265 261 254 251 251 245 239 244 248 244 239 219 215 209 210 218
321 316 311 311 309 309 306 304 302 301 298 295 294 294 294 292 295 296 296 294 287 284 281 277 273 273 270 266 262 255 250 246 247 247 244 243 245 245 237 213 212 198 210
317 312 310 308 306 304 302 301 299 295 292 293 292 290 291 291 296 296 295 292 288 286 283 279 275 271 271 266 260 256 252 248 240 239 240 243 241 237 236 221 210 208 215
312 314 313 311 308 308 304 300 298 296 294 292 291 291 291 291 293 297 297 291 287 285 280 278 274 272 271 268 261 254 249 254 248 238 236 236 236 232 230 224 222 214 214
319 317 318 320 319 310 306 302 299 296 293 293 293 293 293 292 291 294 295 293 291 289 289 288 285 282 276 271 265 259 257 254 248 238 236 233 231 228 227 226 219 222 226
322 322 323 323 317 312 303 302 300 297 294 294 295 294 293 290 285 286 289 289 288 284 281 283 282 279 280 277 271 261 256 252 245 238 230 233 230 230 227 222 223 221 228
326 325 319 311 312 309 310 300 296 294 294 293 292 289 289 287 287 286 279 271 269 269 269 270 272 279 270 277 287 261 245 243 242 237 231 228 228 221 217 210 205 204 211
329 318 312 310 304 306 303 296 293 292 292 293 294 296 297 297 297 297 298 299 292 280 269 260 261 264 268 276 285 266 237 234 241 246 232 218 214 208 206 200 199 189 198
323 317 313 308 307 308 304 300 302 301 304 303 303 303 301 298 302 301 300 298 296 293 280 273 274 266 266 273 274 277 251 247 244 240 230 214 206 198 201 196 194 192 195
321 314 311 307 308 311 305 302 304 312 313 310 311 310 309 306 304 303 304 301 299 298 279 271 266 267 263 257 267 269 263 250 239 237 220 218 201 199 194 192 189 186 189
324 321 313 302 307 308 303 302 305 307 310 314 318 321 319 319 317 314 311 309 303 296 278 264 262 259 261 257 251 257 266 252 239 231 222 207 197 197 193 189 188 185 185
328 322 318 308 310 309 305 304 307 310 312 312 317 322 325 323 324 325 326 321 315 311 301 277 257 253 249 245 240 249 251 240 229 225 213 202 197 189 190 189 188 189 183
331 333 316 316 322 315 310 311 316 320 320 322 322 322 322 330 336 332 334 330 325 320 319 310 287 259 256 255 234 244 238 235 232 223 213 195 188 188 188 182 182 178 180
332 330 333 331 331 318 309 314 319 324 323 325 324 327 337 345 333 334 334 334 333 331 330 334 351 325 291 248 232 236 235 227 216 205 191 182 177 173 176 176 176 175 168
327 332 337 338 340 325 318 322 326 327 329 330 331 336 347 347 344 341 340 341 340 342 346 348 352 8 14 15 343 241 205 187 185 177 165 162 156 153 152 153 155 154 155
335 340 339 349 351 346 342 348 337 337 336 337 338 340 347 349 349 350 349 349 352 356 9 15 14 16 20 26 28 40 121 133 157 163 148 144 141 143 147 148 150 152 155
345 347 351 2 356 352 352 351 351 347 344 342 345 347 349 350 353 354 356 358 2 7 15 22 25 25 26 29 32 38 54 132 161 160 161 148 139 139 139 140 145 148 145
344 350 6 10 2 357 353 357 359 358 353 350 349 351 353 355 358 2 6 7 11 15 22 27 33 33 33 34 37 42 52 80 133 149 150 146 135 134 131 132 134 134 134
336 347 2 1 359 359 358 355 354 357 357 358 359 360 2 3 3 7 11 13 16 22 27 33 36 40 42 38 40 43 46 64 100 125 136 137 129 120 121 119 121 119 118